Regional Weather Roundup
Issued by NWS

Home | Current Version | Previous Version | Graphics & Text | Print | Product List | Glossary Off
Versions: 1 2 3 4 5 6 7 8 9 10 11 12 13 14 15 16 17 18 19 20 21 22 23 24 25 26 27 28 29 30 31 32 33 34 35 36 37 38 39 40 41 42 43 44 45 46 47 48 49 50

629
ASUS43 KLSX 240810
RWRMO

WEATHER SUMMARY FOR MISSOURI
NATIONAL WEATHER SERVICE SPRINGFIELD MO
200 AM CST FRI FEB 24 2017

NOTE: "FAIR" INDICATES FEW OR NO CLOUDS BELOW 12,000 FEET WITH NO
       SIGNIFICANT WEATHER AND/OR OBSTRUCTIONS TO VISIBILITY.
       CURRENT SKY AND/OR WEATHER CONDITIONS ARE NOT AVAILABLE FOR
       CHILLICOTHE AND FARMINGTON.

MOZ001>031-035>038-043-044-053-054-240900-
...NORTHERN AND WESTERN MISSOURI...

CITY           SKY/WX    TMP DP  RH WIND       PRES   REMARKS
KANSAS CTY INT PTCLDY    42  39  89 NW8       29.46F
KANSAS C DTWN  CLOUDY    45  40  82 N9        29.45F
LEE`S SUMMIT   CLOUDY    44  43  96 N12       29.46R
ST JOSEPH      MOCLDY    39  39 100 NW10      29.50R
CHILLICOTHE      N/A     48  46  93 NW13G23   29.44R
KIRKSVILLE     CLOUDY    50  49  96 W9        29.37R

$$
MOZ066>068-077>081-088>096-101>105-240900-
...SOUTHWEST MISSOURI...

CITY           SKY/WX    TMP DP  RH WIND       PRES   REMARKS
SPRINGFIELD    CLEAR     65  52  62 S13       29.45R
JOPLIN         CLEAR     52  46  80 NW15      29.48R
BRANSON        CLOUDY    66  54  63 S9        29.49S

$$
MOZ032>034-039>042-045>050-055>058-069>072-240900-
...CENTRAL MISSOURI...

CITY           SKY/WX    TMP DP  RH WIND       PRES   REMARKS
COLUMBIA       MOCLDY    61  55  81 SE9       29.41F
JEFFERSON CITY CLOUDY    61  54  77 E8        29.41F
ROLLA          LGT RAIN  64  55  72 S17       29.41F
SEDALIA        CLEAR     63  51  65 S13       29.38F
WHITEMAN AFB   CLOUDY    50  50 100 NW18G28   29.43R FOG
WARRENSBURG    CLOUDY    48  45  87 NW20G28   29.45R
OSAGE BEACH    CLOUDY    65  55  70 S6        29.43R

$$
MOZ051-052-059>065-240900-
...EAST CENTRAL MISSOURI...

CITY           SKY/WX    TMP DP  RH WIND       PRES   REMARKS
ST LOUIS INTL  PTCLDY    66  53  63 SW10G21   29.49R
SPIRIT OF STL  PTCLDY    65  54  67 S3        29.46S
ST CHARLES     MOCLDY    58  53  84 SE6       29.47R

$$
MOZ072>076-082>087-097>100-106>115-240900-
...SOUTH CENTRAL AND SOUTHEAST MISSOURI...

CITY           SKY/WX    TMP DP  RH WIND       PRES   REMARKS
CAPE GIRARDEAU CLEAR     62  56  80 S16       29.59F
FARMINGTON     CLEAR     63  54  72 S16       29.53S
POPLAR BLUFF   CLEAR     61  57  87 S13       29.58F
WEST PLAINS    CLEAR     62  54  74 S9        29.54F

$$




USA.gov is the U.S. government's official web portal to all federal, state and local government web resources and services.